When you browse on this site, cookies collect data to enhance your experience and personalize the content and advertising you see.
Visit our Privacy Policy to learn more. By continuing to use the site, you agree to this use of cookies and data.
  • In Belgien
  • Länderverzeichnis
  • Für 7 Tage
  • Wassertemperatur
  • Satellitenkarten
  • Wetterkarte
  • Widgets
  • user-avatar
    Anmelden

    Stündliche Wetter Viktorovka

    Heute, 24 April, Mittwoch

    Zeit Temperatur Niederschläge Wind Luftdruck Luftfeuchtigkeit
    00:00 +13°C° 0 mm 3 m/S 756 mmHg 55%
    01:00 +12°C° 0 mm 3 m/S 756 mmHg 57%
    02:00 +12°C° 0 mm 3 m/S 756 mmHg 59%
    03:00 +12°C° 0 mm 2 m/S 756 mmHg 60%
    04:00 +12°C° 0 mm 2 m/S 756 mmHg 62%
    05:00 +10°C° 0 mm 2 m/S 756 mmHg 64%
    06:00 +10°C° 0 mm 2 m/S 756 mmHg 65%
    07:00 +12°C° 0 mm 3 m/S 756 mmHg 61%
    08:00 +13°C° 0 mm 3 m/S 756 mmHg 56%
    09:00 +16°C° 0 mm 3 m/S 756 mmHg 50%
    10:00 +17°C° 0 mm 3 m/S 756 mmHg 46%
    11:00 +19°C° 0 mm 4 m/S 756 mmHg 42%
    12:00 +20°C° 0 mm 4 m/S 756 mmHg 38%
    13:00 +21°C° 0 mm 4 m/S 756 mmHg 37%
    14:00 +21°C° 0 mm 4 m/S 756 mmHg 35%
    15:00 +22°C° 0 mm 3 m/S 756 mmHg 34%
    16:00 +21°C° 0 mm 3 m/S 756 mmHg 36%
    17:00 +21°C° 0 mm 3 m/S 756 mmHg 39%
    18:00 +21°C° 0 mm 2 m/S 755 mmHg 41%
    19:00 +19°C° 0 mm 2 m/S 756 mmHg 45%
    20:00 +18°C° 0 mm 2 m/S 756 mmHg 49%
    21:00 +16°C° 0 mm 2 m/S 756 mmHg 52%
    22:00 +16°C° 0 mm 2 m/S 756 mmHg 54%
    23:00 +15°C° 0 mm 2 m/S 756 mmHg 56%

    Morgen, 25 April, Donnerstag

    Zeit Temperatur Niederschläge Wind Luftdruck Luftfeuchtigkeit
    00:00 +15°C° 0 mm 2 m/S 756 mmHg 58%
    01:00 +14°C° 0 mm 2 m/S 756 mmHg 59%
    02:00 +14°C° 0 mm 2 m/S 756 mmHg 60%
    03:00 +13°C° 0 mm 2 m/S 756 mmHg 61%
    04:00 +13°C° 0 mm 2 m/S 756 mmHg 62%
    05:00 +13°C° 0 mm 2 m/S 756 mmHg 63%
    06:00 +12°C° 0 mm 2 m/S 756 mmHg 64%
    07:00 +14°C° 0 mm 2 m/S 756 mmHg 59%
    08:00 +16°C° 0 mm 2 m/S 756 mmHg 54%
    09:00 +18°C° 0 mm 2 m/S 756 mmHg 48%
    10:00 +19°C° 0 mm 2 m/S 756 mmHg 44%
    11:00 +21°C° 0 mm 2 m/S 756 mmHg 40%
    12:00 +23°C° 0 mm 2 m/S 756 mmHg 36%
    13:00 +23°C° 0 mm 2 m/S 756 mmHg 35%
    14:00 +24°C° 0 mm 2 m/S 755 mmHg 34%
    15:00 +24°C° 0 mm 2 m/S 755 mmHg 32%
    16:00 +24°C° 0 mm 2 m/S 755 mmHg 34%
    17:00 +24°C° 0 mm 1 m/S 754 mmHg 36%
    18:00 +24°C° 0 mm 1 m/S 754 mmHg 38%
    19:00 +22°C° 0 mm 1 m/S 754 mmHg 41%
    20:00 +21°C° 0 mm 1 m/S 754 mmHg 45%
    21:00 +19°C° 0 mm 1 m/S 754 mmHg 49%
    22:00 +18°C° 0 mm 1 m/S 754 mmHg 51%
    23:00 +18°C° 0 mm 1 m/S 754 mmHg 53%

    übermorgen, 26 April, Freitag

    Zeit Temperatur Niederschläge Wind Luftdruck Luftfeuchtigkeit
    00:00 +16°C° 0 mm 1 m/S 754 mmHg 55%
    01:00 +16°C° 0 mm 1 m/S 754 mmHg 57%
    02:00 +15°C° 0 mm 1 m/S 753 mmHg 58%
    03:00 +15°C° 0 mm 1 m/S 753 mmHg 59%
    04:00 +15°C° 0 mm 1 m/S 753 mmHg 61%
    05:00 +14°C° 0 mm 1 m/S 753 mmHg 62%
    06:00 +14°C° 0 mm 1 m/S 753 mmHg 63%
    07:00 +15°C° 0 mm 1 m/S 753 mmHg 61%
    08:00 +16°C° 0 mm 1 m/S 753 mmHg 58%
    09:00 +19°C° 0 mm 1 m/S 753 mmHg 55%
    10:00 +20°C° 0 mm 1 m/S 753 mmHg 52%
    11:00 +21°C° 0 mm 1 m/S 753 mmHg 48%
    12:00 +22°C° 0 mm 1 m/S 753 mmHg 44%
    13:00 +22°C° 0 mm 1 m/S 753 mmHg 42%
    14:00 +23°C° 0 mm 1 m/S 752 mmHg 40%
    15:00 +23°C° 0 mm 1 m/S 752 mmHg 37%
    16:00 +23°C° 0 mm 1 m/S 752 mmHg 41%
    17:00 +22°C° 0 mm 1 m/S 752 mmHg 45%
    18:00 +21°C° 0 mm 1 m/S 751 mmHg 48%
    19:00 +20°C° 0 mm 1 m/S 751 mmHg 52%
    20:00 +19°C° 0 mm 1 m/S 751 mmHg 56%
    21:00 +18°C° 0 mm 1 m/S 751 mmHg 60%
    22:00 +16°C° 0 mm 1 m/S 751 mmHg 61%
    23:00 +15°C° 0 mm 0 m/S 751 mmHg 62%

    27 April, Samstag

    Zeit Temperatur Niederschläge Wind Luftdruck Luftfeuchtigkeit
    00:00 +14°C° 0 mm 0 m/S 751 mmHg 63%
    01:00 +14°C° 0 mm 0 m/S 751 mmHg 63%
    02:00 +15°C° 0 mm 1 m/S 751 mmHg 63%
    03:00 +15°C° 0 mm 1 m/S 750 mmHg 62%
    04:00 +15°C° 0 mm 1 m/S 750 mmHg 64%
    05:00 +15°C° 0 mm 1 m/S 750 mmHg 65%
    06:00 +15°C° 0 mm 1 m/S 750 mmHg 66%
    07:00 +16°C° 0 mm 1 m/S 749 mmHg 64%
    08:00 +17°C° 0 mm 2 m/S 749 mmHg 62%
    09:00 +17°C° 0 mm 2 m/S 749 mmHg 59%
    10:00 +19°C° 0 mm 3 m/S 749 mmHg 52%
    11:00 +20°C° 0 mm 3 m/S 748 mmHg 44%
    12:00 +22°C° 0 mm 4 m/S 748 mmHg 36%
    13:00 +22°C° 0 mm 4 m/S 748 mmHg 40%
    14:00 +21°C° 0 mm 4 m/S 747 mmHg 43%
    15:00 +21°C° 0 mm 4 m/S 747 mmHg 47%
    16:00 +21°C° 0 mm 3 m/S 747 mmHg 48%
    17:00 +21°C° 0 mm 3 m/S 746 mmHg 49%
    18:00 +21°C° 0 mm 3 m/S 746 mmHg 51%
    19:00 +19°C° 0 mm 3 m/S 746 mmHg 55%
    20:00 +18°C° 0 mm 3 m/S 746 mmHg 60%
    21:00 +17°C° 0 mm 3 m/S 745 mmHg 64%
    22:00 +16°C° 0.1 mm 3 m/S 745 mmHg 68%
    23:00 +14°C° 0.1 mm 3 m/S 745 mmHg 72%

    28 April, Sonntag

    Zeit Temperatur Niederschläge Wind Luftdruck Luftfeuchtigkeit
    00:00 +14°C° 0.1 mm 3 m/S 745 mmHg 75%
    01:00 +13°C° 0 mm 3 m/S 745 mmHg 76%
    02:00 +14°C° 0 mm 2 m/S 744 mmHg 77%
    03:00 +13°C° 0 mm 2 m/S 744 mmHg 78%
    04:00 +12°C° 0.4 mm 3 m/S 744 mmHg 81%
    05:00 +12°C° 0.4 mm 3 m/S 743 mmHg 83%
    06:00 +13°C° 0.4 mm 3 m/S 743 mmHg 86%
    07:00 +13°C° 0.6 mm 4 m/S 743 mmHg 83%
    08:00 +13°C° 0.6 mm 4 m/S 742 mmHg 81%
    09:00 +14°C° 0.6 mm 4 m/S 742 mmHg 79%
    10:00 +14°C° 0.6 mm 4 m/S 742 mmHg 79%
    11:00 +14°C° 0.6 mm 4 m/S 742 mmHg 80%
    12:00 +15°C° 0.6 mm 4 m/S 742 mmHg 80%
    13:00 +15°C° 0.2 mm 4 m/S 742 mmHg 81%
    14:00 +16°C° 0.2 mm 3 m/S 742 mmHg 81%
    15:00 +16°C° 0.2 mm 3 m/S 742 mmHg 82%
    16:00 +14°C° 0.4 mm 4 m/S 743 mmHg 82%
    17:00 +13°C° 0.4 mm 6 m/S 743 mmHg 82%
    18:00 +11°C° 0.4 mm 7 m/S 743 mmHg 82%
    19:00 +10°C° 0 mm 7 m/S 744 mmHg 81%
    20:00 +9°C° 0 mm 7 m/S 744 mmHg 80%
    21:00 +9°C° 0 mm 6 m/S 745 mmHg 79%
    22:00 +8°C° 0 mm 6 m/S 746 mmHg 76%
    23:00 +6°C° 0 mm 7 m/S 746 mmHg 74%

    29 April, Montag

    Zeit Temperatur Niederschläge Wind Luftdruck Luftfeuchtigkeit
    00:00 +6°C° 0 mm 7 m/S 747 mmHg 71%
    01:00 +5°C° 0 mm 6 m/S 747 mmHg 71%
    02:00 +4°C° 0 mm 6 m/S 748 mmHg 71%
    03:00 +3°C° 0 mm 6 m/S 748 mmHg 70%
    04:00 +2°C° 0 mm 6 m/S 749 mmHg 71%
    05:00 +2°C° 0 mm 6 m/S 749 mmHg 71%
    06:00 +1°C° 0 mm 6 m/S 750 mmHg 71%
    07:00 +2°C° 0 mm 6 m/S 750 mmHg 66%
    08:00 +3°C° 0 mm 7 m/S 751 mmHg 60%
    09:00 +4°C° 0 mm 7 m/S 751 mmHg 55%
    10:00 +5°C° 0 mm 7 m/S 751 mmHg 51%
    11:00 +6°C° 0 mm 7 m/S 751 mmHg 47%
    12:00 +6°C° 0 mm 7 m/S 751 mmHg 43%
    13:00 +8°C° 0 mm 7 m/S 751 mmHg 42%
    14:00 +8°C° 0 mm 6 m/S 751 mmHg 40%
    15:00 +8°C° 0 mm 6 m/S 751 mmHg 39%
    16:00 +8°C° 0 mm 6 m/S 752 mmHg 40%
    17:00 +8°C° 0 mm 5 m/S 752 mmHg 41%
    18:00 +7°C° 0 mm 5 m/S 752 mmHg 42%
    19:00 +6°C° 0 mm 4 m/S 752 mmHg 46%
    20:00 +5°C° 0 mm 4 m/S 753 mmHg 49%
    21:00 +4°C° 0 mm 3 m/S 753 mmHg 53%
    22:00 +4°C° 0 mm 3 m/S 753 mmHg 55%
    23:00 +3°C° 0 mm 3 m/S 754 mmHg 56%
    Mehr zeigen